Hourly Weather Luhove

Today, 15 May, Saturday

Time Temperature Precipitation Wind Pressure Humidity
00:00 +9°C° 0 mm 3 mps 735 mmHg 96%
01:00 +9°C° 0 mm 3 mps 735 mmHg 97%
02:00 +10°C° 0 mm 2 mps 736 mmHg 97%
03:00 +10°C° 0 mm 3 mps 736 mmHg 97%
04:00 +10°C° 0 mm 3 mps 736 mmHg 97%
05:00 +10°C° 0 mm 4 mps 736 mmHg 96%
06:00 +10°C° 0 mm 4 mps 737 mmHg 93%
07:00 +10°C° 0 mm 5 mps 737 mmHg 90%
08:00 +12°C° 0 mm 5 mps 738 mmHg 86%
09:00 +13°C° 0 mm 5 mps 738 mmHg 79%
10:00 +14°C° 0 mm 5 mps 738 mmHg 73%
11:00 +16°C° 0 mm 5 mps 738 mmHg 66%
12:00 +16°C° 0 mm 5 mps 738 mmHg 66%
13:00 +15°C° 0 mm 4 mps 739 mmHg 66%
14:00 +15°C° 0 mm 4 mps 739 mmHg 67%
15:00 +17°C° 0 mm 4 mps 739 mmHg 65%
16:00 +17°C° 0 mm 3 mps 739 mmHg 63%
17:00 +18°C° 0 mm 2 mps 739 mmHg 61%
18:00 +16°C° 0 mm 2 mps 738 mmHg 67%
19:00 +15°C° 0 mm 1 mps 738 mmHg 73%
20:00 +12°C° 0 mm 0 mps 738 mmHg 79%
21:00 +12°C° 0 mm 1 mps 738 mmHg 81%
22:00 +12°C° 0 mm 1 mps 738 mmHg 84%
23:00 +10°C° 0 mm 2 mps 739 mmHg 86%

Tomorrow, 16 May, Sunday

Time Temperature Precipitation Wind Pressure Humidity
00:00 +10°C° 0 mm 2 mps 739 mmHg 87%
01:00 +9°C° 0 mm 2 mps 739 mmHg 89%
02:00 +9°C° 0 mm 3 mps 739 mmHg 91%
03:00 +9°C° 0 mm 3 mps 738 mmHg 92%
04:00 +9°C° 0 mm 3 mps 738 mmHg 93%
05:00 +9°C° 0 mm 3 mps 738 mmHg 93%
06:00 +10°C° 0 mm 4 mps 738 mmHg 89%
07:00 +12°C° 0 mm 4 mps 738 mmHg 84%
08:00 +13°C° 0 mm 5 mps 738 mmHg 79%
09:00 +15°C° 0 mm 5 mps 738 mmHg 75%
10:00 +17°C° 0 mm 4 mps 738 mmHg 71%
11:00 +19°C° 0 mm 4 mps 738 mmHg 67%
12:00 +19°C° 0.3 mm 4 mps 737 mmHg 65%
13:00 +20°C° 0.3 mm 4 mps 737 mmHg 63%
14:00 +21°C° 0.3 mm 4 mps 736 mmHg 61%
15:00 +20°C° 0.8 mm 3 mps 736 mmHg 67%
16:00 +19°C° 0.8 mm 3 mps 736 mmHg 73%
17:00 +18°C° 0.8 mm 3 mps 735 mmHg 79%
18:00 +17°C° 0.9 mm 3 mps 736 mmHg 84%
19:00 +16°C° 0.9 mm 3 mps 736 mmHg 88%
20:00 +13°C° 0.9 mm 4 mps 736 mmHg 93%
21:00 +13°C° 0.3 mm 3 mps 736 mmHg 93%
22:00 +12°C° 0.3 mm 3 mps 736 mmHg 93%
23:00 +12°C° 0.3 mm 3 mps 736 mmHg 94%

Day after tomorrow, 17 May, Monday

Time Temperature Precipitation Wind Pressure Humidity
00:00 +13°C° 0.3 mm 2 mps 736 mmHg 94%
01:00 +13°C° 0.3 mm 2 mps 736 mmHg 94%
02:00 +12°C° 0.3 mm 2 mps 736 mmHg 95%
03:00 +12°C° 0 mm 2 mps 736 mmHg 95%
04:00 +12°C° 0 mm 2 mps 736 mmHg 94%
05:00 +12°C° 0 mm 2 mps 736 mmHg 94%
06:00 +13°C° 0 mm 2 mps 737 mmHg 90%
07:00 +14°C° 0 mm 2 mps 737 mmHg 86%
08:00 +15°C° 0 mm 2 mps 737 mmHg 82%
09:00 +16°C° 0 mm 2 mps 737 mmHg 75%
10:00 +17°C° 0 mm 2 mps 736 mmHg 69%
11:00 +18°C° 0 mm 2 mps 736 mmHg 62%
12:00 +19°C° 0 mm 2 mps 736 mmHg 59%
13:00 +19°C° 0 mm 2 mps 736 mmHg 56%
14:00 +20°C° 0 mm 2 mps 736 mmHg 53%
15:00 +21°C° 0 mm 1 mps 735 mmHg 55%
16:00 +20°C° 0 mm 1 mps 735 mmHg 56%
17:00 +20°C° 0 mm 1 mps 735 mmHg 57%
18:00 +17°C° 0.2 mm 2 mps 735 mmHg 68%
19:00 +14°C° 0.2 mm 4 mps 735 mmHg 78%
20:00 +13°C° 0.2 mm 5 mps 735 mmHg 88%
21:00 +12°C° 0.3 mm 4 mps 735 mmHg 90%
22:00 +12°C° 0.3 mm 4 mps 735 mmHg 93%
23:00 +11°C° 0.3 mm 3 mps 735 mmHg 96%

18 May, Tuesday

Time Temperature Precipitation Wind Pressure Humidity
00:00 +11°C° 0.2 mm 3 mps 735 mmHg 96%
01:00 +10°C° 0.2 mm 3 mps 735 mmHg 96%
02:00 +10°C° 0.2 mm 3 mps 735 mmHg 96%
03:00 +9°C° 0 mm 3 mps 736 mmHg 96%
04:00 +9°C° 0 mm 3 mps 736 mmHg 97%
05:00 +8°C° 0 mm 3 mps 736 mmHg 97%
06:00 +8°C° 0 mm 4 mps 736 mmHg 93%
07:00 +9°C° 0 mm 5 mps 737 mmHg 89%
08:00 +11°C° 0 mm 6 mps 737 mmHg 85%
09:00 +13°C° 0 mm 6 mps 737 mmHg 77%
10:00 +14°C° 0 mm 6 mps 737 mmHg 70%
11:00 +15°C° 0 mm 6 mps 738 mmHg 63%
12:00 +15°C° 0.1 mm 6 mps 738 mmHg 63%
13:00 +15°C° 0.1 mm 6 mps 738 mmHg 62%
14:00 +15°C° 0.1 mm 5 mps 738 mmHg 62%
15:00 +15°C° 0 mm 5 mps 738 mmHg 63%
16:00 +15°C° 0 mm 5 mps 738 mmHg 63%
17:00 +15°C° 0 mm 5 mps 738 mmHg 64%
18:00 +14°C° 0 mm 4 mps 738 mmHg 70%
19:00 +12°C° 0 mm 3 mps 738 mmHg 77%
20:00 +12°C° 0 mm 2 mps 739 mmHg 83%
21:00 +10°C° 0 mm 2 mps 739 mmHg 86%
22:00 +9°C° 0 mm 2 mps 739 mmHg 88%
23:00 +9°C° 0 mm 3 mps 740 mmHg 91%

19 May, Wednesday

Time Temperature Precipitation Wind Pressure Humidity
00:00 +8°C° 0 mm 3 mps 739 mmHg 91%
01:00 +8°C° 0 mm 2 mps 739 mmHg 92%
02:00 +7°C° 0 mm 2 mps 739 mmHg 93%
03:00 +7°C° 0 mm 2 mps 739 mmHg 93%
04:00 +7°C° 0 mm 2 mps 739 mmHg 93%
05:00 +8°C° 0 mm 1 mps 739 mmHg 93%
06:00 +8°C° 0 mm 2 mps 739 mmHg 88%
07:00 +10°C° 0 mm 2 mps 740 mmHg 83%
08:00 +12°C° 0 mm 3 mps 740 mmHg 78%
09:00 +13°C° 0 mm 3 mps 740 mmHg 74%
10:00 +15°C° 0 mm 2 mps 740 mmHg 69%
11:00 +16°C° 0 mm 2 mps 740 mmHg 65%
12:00 +17°C° 0.1 mm 3 mps 739 mmHg 63%
13:00 +17°C° 0.1 mm 3 mps 739 mmHg 61%
14:00 +17°C° 0.1 mm 4 mps 739 mmHg 60%
15:00 +17°C° 0.3 mm 4 mps 739 mmHg 65%
16:00 +15°C° 0.3 mm 4 mps 739 mmHg 71%
17:00 +14°C° 0.3 mm 4 mps 739 mmHg 76%
18:00 +13°C° 0.1 mm 4 mps 739 mmHg 80%
19:00 +12°C° 0.1 mm 4 mps 739 mmHg 83%
20:00 +11°C° 0.1 mm 3 mps 739 mmHg 87%
21:00 +11°C° 0 mm 4 mps 739 mmHg 88%
22:00 +10°C° 0 mm 4 mps 739 mmHg 89%
23:00 +9°C° 0 mm 5 mps 739 mmHg 90%

20 May, Thursday

Time Temperature Precipitation Wind Pressure Humidity
00:00 +9°C° 0 mm 5 mps 739 mmHg 90%
01:00 +9°C° 0 mm 5 mps 739 mmHg 90%
02:00 +8°C° 0 mm 5 mps 739 mmHg 89%
03:00 +8°C° 0 mm 6 mps 739 mmHg 89%
04:00 +8°C° 0 mm 6 mps 739 mmHg 88%
05:00 +7°C° 0 mm 6 mps 739 mmHg 88%
06:00 +8°C° 0 mm 6 mps 739 mmHg 86%
07:00 +8°C° 0 mm 7 mps 739 mmHg 84%
08:00 +9°C° 0 mm 7 mps 740 mmHg 83%
09:00 +10°C° 0 mm 7 mps 740 mmHg 77%
10:00 +11°C° 0 mm 8 mps 740 mmHg 71%
11:00 +12°C° 0 mm 8 mps 740 mmHg 65%
12:00 +13°C° 0 mm 8 mps 740 mmHg 63%
13:00 +13°C° 0 mm 8 mps 740 mmHg 61%
14:00 +15°C° 0 mm 8 mps 740 mmHg 59%
15:00 +13°C° 0 mm 8 mps 740 mmHg 62%
16:00 +14°C° 0 mm 7 mps 741 mmHg 65%
17:00 +14°C° 0 mm 7 mps 741 mmHg 68%
18:00 +11°C° 0.1 mm 7 mps 741 mmHg 73%
19:00 +10°C° 0.1 mm 6 mps 742 mmHg 79%
20:00 +9°C° 0.1 mm 6 mps 742 mmHg 84%
21:00 +8°C° 0 mm 5 mps 742 mmHg 86%
22:00 +7°C° 0 mm 5 mps 743 mmHg 89%
23:00 +6°C° 0 mm 4 mps 743 mmHg 91%
Show more

We Need Your Consent

Meteoprog and our Service Providers may store and access personal data such as cookies, device identifiers or other similar technologies on your device and process such data to personalise content and ads, as well as provide social media features and to analyse the traffic.

  • Store and/or access information on your device

    Cookies, device identifiers or other information can be stored or accessed on your device for the purposes indicated above.

  • Personalised ads and content, ad and content measurement, audience insights, and products development

    Ads and content can be personalised based on a profile. More data can be added to better personalise ads and content. Ad and content performance can be measured. Insights about the audience who saw the ads and content can be derived. Such data can be used to develop or improve user’s experience, systems and software.

By clicking ‘I Agree’ you will allow the use of indicated cookies, device identifiers, web beacons or other similar technologies. Your settings can be changed in the browser on your device.

For certain purposes, legitimate interests may be relied on, rather than consent. You can read more about this in our Privacy and Cookie Policy.